Natchitoches, LA

7:23 AM CST on November 17, 2019 (GMT -0600)
Natchitoches Regional

Weather History for KIER - September, 2019

Change the Weather History Date:

Wednesday, September 11, 2019

  Actual Average Record
Temperature  
Mean Temperature 82 °F -  
Max Temperature 96 °F 88 °F 101 °F (1980)
Min Temperature 70 °F 68 °F 54 °F (1943)
Cooling Degree Days 18    
Growing Degree Days 32 (Base 50)    
Moisture  
Dew Point 70 °F    
Average Humidity 73    
Maximum Humidity 100    
Minimum Humidity 35    
Precipitation  
Precipitation 0.00 in - - ()
Sea Level Pressure  
Sea Level Pressure 30.12 in    
Wind  
Wind Speed 2 mph (ESE)    
Max Wind Speed 13 mph    
Max Gust Speed -    
Visibility 9 miles    
Events      
Averages and records for this station are not official NWS values.
T = Trace of Precipitation, MM = Missing Value Source: NWS Daily Summary

Daily Weather History Graph

Daily Weather History Graph

Search for Another Location

Airport or City:

Astronomy

Sep. 11, 2019 Rise Set
Actual Time 6:53 AM CDT 7:23 PM CDT
Civil Twilight 6:29 AM CDT 7:48 PM CDT
Nautical Twilight 6:00 AM CDT 8:16 PM CDT
Astronomical Twilight 5:31 AM CDT 8:46 PM CDT
Moon 6:24 PM CDT (9/11) 4:30 AM CDT (9/11)
Length of Visible Light 13h 18m
Length of Day
12h 29m
Waxing Gibbous, 95% of the Moon is Illuminated
Sep 11
Waxing Gibbous
Sep 13
Full
Sep 21
Last Quarter
Sep 28
New
Oct 5
First Quarter

Hourly Weather History & Observations

Time (CDT) Temp. Heat Index Dew Point Humidity Pressure Visibility Wind Dir Wind Speed Gust Speed Precip Events Conditions
12:15 AM 72.1 °F - 70.7 °F 95% 30.11 in 10.0 mi Calm Calm - N/A   Clear
12:35 AM 72.0 °F - 70.9 °F 96% 30.12 in 10.0 mi Calm Calm - N/A   Clear
12:55 AM 71.8 °F - 70.9 °F 97% 30.12 in 10.0 mi Calm Calm - N/A   Clear
1:15 AM 72.5 °F - 71.2 °F 96% 30.13 in 10.0 mi Calm Calm - N/A   Clear
2:15 AM 72.1 °F - 71.2 °F 97% 30.12 in 10.0 mi Calm Calm - N/A   Clear
2:35 AM 72.0 °F - 71.1 °F 97% 30.12 in 10.0 mi Calm Calm - N/A   Clear
3:15 AM 71.6 °F - 70.7 °F 97% 30.11 in 10.0 mi Calm Calm - N/A   Clear
3:35 AM 70.9 °F - 70.3 °F 98% 30.11 in 7.0 mi Calm Calm - N/A   Clear
3:55 AM 70.9 °F - 70.7 °F 99% 30.11 in 7.0 mi Calm Calm - N/A   Clear
4:15 AM 70.9 °F - 70.5 °F 99% 30.11 in 7.0 mi Calm Calm - N/A   Clear
4:35 AM 70.2 °F - 69.8 °F 99% 30.12 in 5.0 mi Calm Calm - N/A   Clear
4:55 AM 70.7 °F - 70.7 °F 100% 30.12 in 7.0 mi Calm Calm - N/A   Clear
5:15 AM 70.3 °F - 70.0 °F 99% 30.13 in 7.0 mi Calm Calm - N/A   Clear
5:35 AM 70.7 °F - 70.2 °F 98% 30.14 in 10.0 mi Calm Calm - N/A   Clear
5:55 AM 70.7 °F - 70.2 °F 98% 30.13 in 7.0 mi Calm Calm - N/A   Clear
6:15 AM 70.7 °F - 70.2 °F 98% 30.14 in 7.0 mi Calm Calm - N/A   Clear
6:35 AM 70.9 °F - 70.7 °F 99% 30.15 in 7.0 mi Calm Calm - N/A   Scattered Clouds
6:55 AM 71.6 °F - 71.2 °F 99% 30.15 in 7.0 mi Calm Calm - N/A   Scattered Clouds
7:15 AM 71.1 °F - 70.7 °F 99% 30.15 in 4.0 mi Calm Calm - N/A   Clear
7:35 AM 71.8 °F - 71.6 °F 99% 30.16 in 4.0 mi Calm Calm - N/A   Clear
7:55 AM 73.6 °F - 72.7 °F 97% 30.17 in 7.0 mi Calm Calm - N/A   Scattered Clouds
8:15 AM 76.5 °F - 73.6 °F 91% 30.17 in 10.0 mi Calm Calm - N/A   Scattered Clouds
8:35 AM 80.2 °F 85.2 °F 74.5 °F 83% 30.18 in 10.0 mi Calm Calm - N/A   Clear
9:15 AM 82.2 °F 88.8 °F 74.8 °F 78% 30.19 in 10.0 mi SE 5.8 mph - N/A   Clear
9:35 AM 84.0 °F 92.2 °F 75.2 °F 75% 30.19 in 10.0 mi SSE 4.6 mph - N/A   Clear
9:55 AM 86.0 °F 95.1 °F 75.0 °F 70% 30.19 in 10.0 mi SSE 5.8 mph - N/A   Clear
10:35 AM 87.4 °F 97.2 °F 75.4 °F 67% 30.19 in 10.0 mi Calm Calm - N/A   Clear
10:55 AM 90.1 °F 100.6 °F 75.2 °F 61% 30.19 in 10.0 mi South 4.6 mph - N/A   Mostly Cloudy
11:15 AM 91.0 °F 102.2 °F 75.2 °F 60% 30.19 in 10.0 mi SE 6.9 mph - N/A   Scattered Clouds
11:55 AM 91.0 °F 99.3 °F 72.7 °F 55% 30.17 in 10.0 mi ESE 3.5 mph - N/A   Mostly Cloudy
12:15 PM 90.0 °F 97.9 °F 72.7 °F 57% 30.16 in 10.0 mi ESE 4.6 mph - N/A   Scattered Clouds
12:35 PM 91.2 °F 97.0 °F 70.3 °F 50% 30.16 in 10.0 mi Calm Calm - N/A   Clear
12:55 PM 93.0 °F 100.1 °F 71.4 °F 49% 30.15 in 10.0 mi SE 6.9 mph - N/A   Scattered Clouds
1:15 PM 93.9 °F 99.1 °F 69.1 °F 44% 30.14 in 10.0 mi East 5.8 mph - N/A   Clear
1:35 PM 94.8 °F 98.7 °F 67.3 °F 40% 30.13 in 10.0 mi ENE 5.8 mph - N/A   Clear
1:55 PM 95.0 °F 100.1 °F 68.9 °F 42% 30.12 in 10.0 mi SE 6.9 mph - N/A   Scattered Clouds
2:15 PM 95.9 °F 100.1 °F 67.5 °F 39% 30.11 in 10.0 mi East 5.8 mph - N/A   Clear
2:35 PM 95.2 °F 99.9 °F 67.8 °F 41% 30.10 in 10.0 mi East 8.1 mph - N/A   Clear
2:55 PM 95.9 °F 101.3 °F 68.9 °F 41% 30.09 in 10.0 mi East 8.1 mph - N/A   Clear
3:15 PM 95.9 °F 100.7 °F 68.4 °F 40% 30.08 in 10.0 mi East 5.8 mph - N/A   Clear
3:35 PM 95.5 °F 100.6 °F 68.2 °F 41% 30.07 in 10.0 mi Calm Calm - N/A   Clear
3:55 PM 95.7 °F 100.3 °F 68.0 °F 40% 30.07 in 10.0 mi East 12.7 mph - N/A   Clear
4:15 PM 95.7 °F 99.8 °F 66.9 °F 39% 30.06 in 10.0 mi East 9.2 mph - N/A   Clear
4:35 PM 95.4 °F 99.1 °F 66.9 °F 39% 30.06 in 10.0 mi ESE 8.1 mph - N/A   Clear
4:55 PM 95.9 °F 99.6 °F 66.4 °F 38% 30.05 in 10.0 mi ESE 6.9 mph - N/A   Clear
5:15 PM 95.0 °F 98.5 °F 66.6 °F 39% 30.05 in 10.0 mi SE 8.1 mph - N/A   Clear
5:35 PM 94.6 °F 97.3 °F 65.7 °F 38% 30.05 in 10.0 mi SE 8.1 mph - N/A   Clear
6:15 PM 93.4 °F 93.9 °F 61.7 °F 35% 30.05 in 10.0 mi SE 6.9 mph - N/A   Clear
6:35 PM 92.1 °F 93.2 °F 63.3 °F 38% 30.06 in 10.0 mi SE 5.8 mph - N/A   Clear
6:55 PM 90.3 °F 91.9 °F 64.4 °F 42% 30.05 in 10.0 mi SE 5.8 mph - N/A   Clear
7:35 PM 85.1 °F 87.4 °F 66.0 °F 53% 30.05 in 10.0 mi SE 4.6 mph - N/A   Clear
7:55 PM 79.2 °F - 69.1 °F 71% 30.06 in 10.0 mi Calm Calm - N/A   Clear
8:15 PM 78.1 °F - 70.0 °F 76% 30.06 in 10.0 mi Calm Calm - N/A   Clear
8:35 PM 77.0 °F - 70.7 °F 81% 30.07 in 10.0 mi Calm Calm - N/A   Clear
8:55 PM 76.3 °F - 70.7 °F 83% 30.08 in 10.0 mi Calm Calm - N/A   Clear
9:15 PM 75.4 °F - 70.2 °F 84% 30.09 in 10.0 mi Calm Calm - N/A   Clear
9:35 PM 75.6 °F - 70.2 °F 83% 30.09 in 10.0 mi Calm Calm - N/A   Clear
9:55 PM 74.8 °F - 70.9 °F 87% 30.10 in 7.0 mi Calm Calm - N/A   Clear
10:35 PM 73.9 °F - 70.5 °F 89% 30.10 in 10.0 mi Calm Calm - N/A   Clear
10:55 PM 73.6 °F - 70.3 °F 90% 30.10 in 10.0 mi Calm Calm - N/A   Clear
11:15 PM 74.3 °F - 70.3 °F 87% 30.10 in 10.0 mi Calm Calm - N/A   Clear
11:35 PM 73.4 °F - 70.0 °F 89% 30.10 in 10.0 mi Calm Calm - N/A   Clear
11:55 PM 72.9 °F - 70.2 °F 91% 30.10 in 10.0 mi Calm Calm - N/A   Clear